www.pogodaiklimat.ru

Погода и климат >> Архив погоды >> Нигер >> Agadez


ПОГОДА в Agadez

  • Прогноз погоды в Agadez
  • Монитор погоды в Agadez
  • Климат города

АРХИВ ПОГОДЫ в Agadez

Время (UTC), дата Ветер
(напр.,м/с)
 
Видим.   Явления Облачность Т
(С)
Тd
(С)
f
(%)
Тe
(С)
Тes
(С)
Комфортность P
(гПа)
Po
(гПа)
Тmin
(С)
Tmax
(С)
R
(мм)
R24
(мм)
S
(см)
18 11.10 Ю 6 10 км 5/0
[Ci sp]
+35.5 +8.7 19 +34 +34 очень
жарко
1008.2 953.6 +40.3
06 12.10 В 6 10 км 6/0
[Ac trans Ci sp]
+31.9 +8.6 24 +31 +31 жарко 1007.7 953.9 +26.0
09 12.10 ЮВ 8 10 км 4/0
[Ci sp]
+34.9 +6.9 18 +33 +35 жарко 1010.6 956.2
12 12.10 Ю 10 10 км 4/0
[Ci sp]
+39.5 +9.7 17 +38 +39 очень
жарко
1008.9 954.6
15 12.10 ЮВ 16 10 км 4/1 1200 м
[Cu hum Ci sp]
+39.4 +5.8 13 +37 +37 очень
жарко
1007.0 952.8
18 12.10 В 4 10 км 4/0
[Ci sp]
+36.0 +9.4 20 +35 +35 очень
жарко
1008.1 953.4 +40.5
06 13.10 В 8 10 км 6/0
[Ac trans Ci sp]
+26.7 +6.0 27 +26 +26 жарко 1008.3 953.7 +25.9
09 13.10 ЮВ 12 10 км 6/0
[Ci sp]
+35.8 +5.9 16 +33 +33 жарко 1009.9 955.5
12 13.10 ЮВ 10 10 км 9/1 1200 м
[Cu hum Cs]
+39.5 +8.0 15 +37 +38 очень
жарко
1007.8 953.7
15 13.10 Ю 4 10 км 9/3 1200 м
[Cu hum Cs]
+39.2 +8.9 16 +37 +40 очень
жарко
1006.5 952.4
18 13.10 В 4 10 км 9/0
[Ac trans Cs]
+35.7 +9.9 21 +35 +35 очень
жарко
1007.4 952.8 +40.8
06 14.10 В 8 10 км 4/0
[Ci sp]
+26.3 +7.6 30 +26 +26 жарко 1008.8 1054.1 +21.5
09 14.10 ЮВ 10 10 км 4/0
[Ci sp]
+33.3 +10.2 24 +33 +33 жарко 1009.6 955.0
12 14.10 Ю 10 10 км 5/3 1200 м
[Cu hum Ci sp]
+39.5 +8.3 15 +37 +38 очень
жарко
1008.1 937.0
15 14.10 ЮВ 8 10 км 8/3 1200 м
[Cu hum Ci sp]
+38.5 +8.4 16 +36 +37 очень
жарко
1006.4 952.2
18 14.10 ЮВ 6 10 км 6/1 1200 м
[Cu hum Ac cuf Ci sp]
+35.3 +9.5 21 +34 +34 очень
жарко
1007.5 952.8 +40.2
06 15.10 В 4 10 км 6/0
[Ci sp]
+25.4 +12.5 45 +27 +27 жарко 1010.1 955.2 +25.0
09 15.10 штиль 0 10 км 5/0
[Ci sp]
+34.0 +17.4 37 +37 +51 опасность
солнечного
удара
1011.8 957.4
12 15.10 ЮВ 12 10 км 9/0
[Cs]
+38.0 +9.7 18 +36 +36 очень
жарко
1010.2 955.9
15 15.10 В 14 10 км 9/1 1200 м
[Cu hum Ci sp]
+38.2 +8.1 16 +36 +36 очень
жарко
1008.6 954.2
18 15.10 В 8 10 км 8/0
[Ci sp]
+35.3 +8.0 19 +34 +34 очень
жарко
1009.0 954.2 +39.4
06 16.10 СВ 12 10 км 6/0
[Ci sp]
+27.2 +6.3 26 +26 +26 жарко 1011.1 956.3 +39.4
09 16.10 В 14 10 км 6/0
[Ci sp]
+35.2 +6.5 17 +33 +33 жарко 1012.3 957.7
12 16.10 В 14 10 км 6/0
[Ci sp]
+38.9 +5.6 13 +36 +36 очень
жарко
1010.2 956.0
15 16.10 В 8 10 км 6/0
[Ac trans Ci sp]
+38.5 +6.1 14 +36 +37 очень
жарко
1009.0 954.7
18 16.10 В 8 10 км 6/0
[]
+35.0 +8.3 19 +33 +33 жарко 1009.6 954.9 +40.6
06 17.10 В 8 10 км 8/0
[Ci sp]
+26.7 +7.1 29 +26 +26 жарко 1010.7 955.9 +26.5
09 17.10 ЮВ 14 10 км 6/0
[Ci sp]
+35.3 +7.1 18 +33 +33 жарко 1011.2 956.6
12 17.10 ЮВ 12 10 км 4/0
[Ci sp]
+38.5 +8.1 16 +36 +36 очень
жарко
1008.8 954.5
15 17.10 В 10 10 км 6/4 1200 м
[Cu med, cong Ci sp]
+39.0 +10.2 18 +38 +38 очень
жарко
1006.8 952.6
18 17.10 В 6 10 км 4/0
[Ac trans Ci sp]
+35.0 +9.8 22 +34 +34 очень
жарко
1007.4 952.7 +40.0
03 18.10 В 8 10 км 4/0
[Ci sp]
+27.0 +8.2 30 +27 +27 жарко 1007.4 953.1
06 18.10 В 10 10 км 8/0
[Ac trans Ci sp]
+28.0 +7.7 28 +28 +28 жарко 1008.7 954.1 +25.7
09 18.10 Ю 8 10 км 5/0
[Ac trans Ci sp]
+33.6 +8.3 21 +32 +34 жарко 1009.6 955.1
12 18.10 Ю 12 10 км 4/0
[Ci sp]
+38.5 +9.3 17 +37 +37 очень
жарко
1007.4 953.4
15 18.10 В 6 10 км 5/1 1200 м
[Cu hum Ci sp]
+38.5 +8.4 16 +36 +38 очень
жарко
1005.5 951.3

 

Местоположение метеостанции Agadez (Нигер): широта 16.97 долгота 7.97 высота над уровнем моря 502 м.

В архиве по умолчанию представлена погода в Agadez за последнюю неделю. Архивные данные за месяц целиком и за предыдущие месяцы, начиная с января 2011 года, Вы можете получить, выбрав интересующий диапазон дат из раскрывающегося списка и нажав кнопку "Ввод!".


*Определитесь, кто Вы:
робот инопланетянин человек

Внимание! Время в таблицах - всемирное. Для получения местного времени необходимо прибавить поправку, которая в Agadez равна 1 ч.

Смотрите также архив погоды в соседних городах и на ближайших метеорологических станциях:

Погода в Zinder (Нигер) (371 км)
Погода в Tahoua (Нигер) (371 км)
Погода в In Guezzam (Алжир) (372 км)
Погода в In Guezzam (Алжир) (372 км)
Погода в Maradi (Нигер) (401 км)
Погода в Goure (Нигер) (416 км)
Погода в Anesbaraka (Алжир) (445 км)
Погода в Magaria (Нигер) (456 км)
Погода в Birni-Nkonni (Нигер) (458 км)
Погода в Cano (Нигерия) (551 км)

Пояснения к столбцам:

Ветер - указаны скорость ветра в м/с - средняя за 10 мин, порывы в срок и между сроками (в фигурных скобках) и направление, откуда дует ветер: С - северный, СВ - северо-восточный, В - восточный, ЮВ - юго-восточный, Ю - южный, ЮЗ - юго-западный, З - западный, СЗ - северо-западный.
Видимость - горизонтальная дальность видимости в метрах или километрах. При видимости от 1 до 10 км при отсутствии осадков обычно наблюдается дымка, при ухудшении видимости до 1 км и менее - туман. В сухую погоду видимость может ухудшаться дымом, пылью или мглою.
Явления - указаны атмосферные явления, наблюдавшиеся в срок или в последний час перед сроком; фигурными скобками обозначены явления, наблюдавшиеся между сроками (за 1-3 часа до срока); квадратными скобками обозначены град или гололедные отложения с указанием их диаметра в мм.
Облачность - указаны через наклонную черту общая и нижняя облачность в баллах и высота нижней границы облаков в метрах; квадратными скобками обозначены формы облаков: Ci - перистые, Cs - перисто-слоистые, Cc - перисто-кучевые, Ac - высококучевые, As - высокослоистые, Sc - слоисто-кучевые, Ns - слоисто-дождевые, Cu - кучевые, Cb - кучево-дождевые. Подробнее классификацию облаков см. в Атласе облаков (PDF).
T - Температура воздуха - температура, измеренная на высоте 2 м над землей.
Td - Температура точки росы - температура, при понижении до которой содержащийся в воздухе водяной пар достигнет насыщения.
f - Относительная влажность воздуха - влажноcть воздуха, измеренная на высоте 2 м над землей.
Te - Эффективная температура - температура, которую ощущает одетый по сезону человек в тени. Характеристика душности погоды. При расчете учитывается влияние влажности воздуха и скорости ветра на теплоощущения человека.
Tes - Эффективная температура на солнце - температура, которую ощущает человек, с поправкой на солнечный нагрев. Характеристика знойности погоды. Зависит от высоты солнца над горизонтом, облачности и скорости ветра. Ночью, в пасмурную погоду, а также при ветре 12 м/с и более поправка равна нулю.
P - Атмосферное давление - приведенное к уровню моря атмосферное давление.
Po - Атмосферное давление - измеренное на уровне метеостанции атмосферное давление.
Tmin - Минимальная температура - минимум температуры воздуха на высоте 2 м над землей.
Tmax - Максимальная температура - максимум температуры воздуха на высоте 2 м над землей.
R - Количество осадков - Количество выпавших осадков за период времени, мм. При наведении курсора мыши на число - период времени, за который выпало указанное количество осадков.
R24 - Количество осадков - Количество выпавших осадков за 24 часа, мм.
S - Снежный покров - Высота снежного покрова, см. При наведении курсора мыши на число - состояние снежного покрова и степень покрытия местности в баллах.